[[{"header":{"parameterUnit":"m.s-1","parameterCategory":1,"la1":30.2991,"la2":30.254,"lo1":-89.0895,"lo2":-89.0444,"dy":0.0017,"dx":0.0017,"nx":28,"ny":28,"refTime":"2024-07-05T09:00:00:Z","depth":0,"parameterNumber":2,"parameterNumberName":"U-component_of_WINDS"},"data":[0,0,0,0,0,0,0,0,0,0,0,0,0,0,0,0,0,0,0,0,0,0,0,0,0,0,0,0,0,0,0,0,0,0,0,0,0,0,0,0,0,0,0,0,0,0,0,0,0,0,0,0,0,0,0,0,0,0,2.9144,2.9147,0,2.9427,2.943,2.9433,2.9474,2.9471,2.9468,2.9466,2.9763,2.9773,2.9784,0,0,0,0,0,0,0,0,0,0,0,0,0,2.8644,2.8653,2.9143,2.9147,2.915,2.9426,2.943,2.9434,2.9474,2.9471,2.9468,2.9465,2.976,2.9772,2.9785,0,0,0,0,0,0,0,0,0,0,0,0,0,2.8888,2.8656,2.9143,2.9204,2.9212,2.9425,2.943,2.9435,2.9475,2.9471,2.9467,2.9463,2.9756,2.9771,2.9786,2.9961,0,0,2.9834,2.984,0,0,0,0,0,0,0,0,2.8874,2.8906,2.9191,2.92,2.9209,2.9411,2.9363,2.9612,2.9476,2.9375,2.9466,2.9461,2.965,2.9674,2.9736,2.9975,2.9988,2.9835,2.9845,2.9851,2.9856,0,0,0,0,0,0,0,2.8857,2.8894,2.9256,2.9195,2.9206,2.9219,2.9249,2.9411,2.9531,2.9384,2.9387,2.942,2.9654,2.9721,2.9743,2.9992,2.9835,2.9849,2.9858,2.9864,3.0389,3.0393,0,0,0,0,0,0,2.8828,2.888,2.9247,2.9264,2.9028,2.9231,2.9265,2.935,2.953,2.9553,2.9423,2.9421,2.9696,2.9725,2.9754,2.997,2.9851,2.9866,2.9875,3.0384,3.039,3.0395,0,0,0,0,0,0,2.8817,2.886,2.9235,2.9073,2.9122,2.9244,2.9339,2.9358,2.9424,2.9559,2.9582,2.9468,2.9694,2.9732,2.9909,2.9981,2.9873,2.9887,3.0379,3.0386,3.0392,3.0403,0,0,0,0,0,0,2.8803,2.8856,2.8922,2.9074,2.913,2.9384,2.9344,2.9366,2.945,2.945,2.9608,2.963,2.9694,2.9885,2.9924,3.0,2.9899,3.0373,3.0382,3.039,3.0397,3.041,3.042,0,0,0,0,0,2.8785,2.8916,2.8926,2.897,2.9215,2.9388,2.942,2.9488,2.9456,2.9525,2.9611,2.9625,2.9966,2.9903,2.9947,3.0029,3.0369,3.0379,3.039,3.0392,3.0407,3.042,0,0,0,0,0,0,2.8773,2.8937,2.895,2.9133,2.9246,2.9394,2.9483,2.9503,2.9629,2.9624,2.9706,2.9741,2.9914,2.9989,2.9916,3.0207,3.0165,3.0185,3.0151,3.0167,3.0179,3.0157,2.9912,0,0,0,0,0,2.8791,2.8915,2.9053,2.9202,2.9257,2.936,2.9438,2.9481,2.9602,2.965,2.975,2.9869,3.0002,3.0089,3.022,3.0408,3.0443,3.0486,3.0497,3.0506,3.0523,3.0627,3.0648,3.0429,3.0429,3.0429,0,0,2.8831,2.8936,2.901,2.9202,2.9294,2.9423,2.94,2.9538,2.9634,2.9672,2.9844,2.9921,3.0059,3.0242,3.0328,3.031,3.0591,3.052,3.0526,3.0538,3.064,3.0661,3.0679,3.0436,3.0435,3.0434,0,0,2.897,2.9061,2.9195,2.9287,2.9425,2.9493,2.9525,2.967,2.9722,2.9895,2.9926,3.0043,3.0272,3.0369,3.0448,3.0621,3.0639,3.0662,3.0723,3.0824,3.0841,3.0857,3.0918,3.0939,3.0677,3.0677,3.0678,0,2.9003,2.9195,2.9262,2.9397,2.9481,2.9518,2.9655,2.9742,2.9918,2.9976,2.9953,3.024,3.0336,3.0541,3.0583,3.0646,3.0686,3.0644,3.0833,3.0849,3.0865,3.0925,3.0947,3.0679,3.0679,3.0679,3.0679,0,2.9229,2.9362,2.9453,2.9618,2.9713,2.9848,2.9937,3.0025,3.0059,3.0129,3.0306,3.0421,3.0575,3.0628,3.0664,3.0839,3.0823,3.0816,3.0775,3.0886,3.0944,3.0967,3.0682,3.0681,3.0681,3.068,0,0,2.9369,2.9567,2.9599,2.9674,2.9829,2.9935,3.0072,3.022,3.0294,3.0414,3.0532,3.0724,3.0717,3.0807,3.0854,3.0943,3.1072,3.0925,3.0929,3.0948,3.1271,3.1275,3.13,3.1084,3.1089,3.1092,3.1259,0,2.9525,2.9768,2.9832,3.0039,3.0163,3.02,3.032,3.0429,3.0498,3.0614,3.0692,3.0826,3.0808,3.0862,3.0951,3.1037,3.1138,3.1026,3.1196,3.1201,3.1159,3.133,3.1336,3.1487,3.1282,3.1286,3.1289,0,2.974,2.986,3.0079,3.0216,3.0271,3.0377,3.0518,3.0628,3.0753,3.0797,3.0896,3.0934,3.1081,3.1031,3.1234,3.1157,3.123,3.1283,3.129,3.1309,3.1251,3.1353,3.1538,3.156,3.1325,3.1322,3.1319,0,2.982,3.0037,3.0195,3.0259,3.0423,3.0497,3.0569,3.069,3.0774,3.0898,3.0954,3.1093,3.117,3.1278,3.1353,3.1311,3.155,3.1507,3.1591,3.1589,3.164,3.1636,3.1838,3.1688,3.1687,3.1687,3.1686,0,2.9987,3.012,3.0233,3.0331,3.048,3.0553,3.07,3.0774,3.0881,3.0995,3.1036,3.1142,3.1235,3.1355,3.1415,3.1574,3.1609,3.1649,3.1663,3.1645,3.164,3.1694,3.1685,3.1693,3.1692,3.1691,3.169,0,3.0102,3.0183,3.0358,3.0498,3.0536,3.0641,3.0762,3.0859,3.0928,3.1072,3.111,3.122,3.1362,3.1448,3.1629,3.167,3.1844,3.1855,3.1801,3.1808,3.1887,3.1878,3.2131,3.2168,3.1993,3.1994,3.1996,0,3.0203,3.0306,3.0456,3.0533,3.0605,3.0731,3.0816,3.0892,3.098,3.1128,3.1208,3.1352,3.1471,3.1698,3.1795,3.1934,3.1947,3.2027,3.1969,3.1947,3.1948,3.1941,3.1951,3.2036,3.2038,3.2039,3.204,0,3.0375,3.0409,3.0529,3.0663,3.0763,3.0873,3.0983,3.1045,3.1139,3.1236,3.1381,3.1473,3.1656,3.1799,3.1946,3.2023,3.2048,3.2057,3.2084,3.2066,3.203,3.205,3.1827,3.2051,3.205,3.2049,3.2049,3.2048,3.0487,3.0578,3.0697,3.0829,3.0919,3.102,3.1117,3.1197,3.1318,3.1471,3.151,3.1661,3.1783,3.1982,3.2062,3.2183,3.217,3.2209,3.2219,3.2227,3.2228,3.2011,3.221,3.221,3.2209,3.2209,3.2209,0,3.066,3.0737,3.0858,3.1008,3.1112,3.1123,3.1245,3.1332,3.1464,3.1574,3.169,3.1855,3.1994,3.2101,3.2243,3.2319,3.2334,3.2354,3.2349,3.2366,3.2232,3.2194,3.2339,3.2339,3.2339,3.2339,3.2339,3.2339,3.0762,3.0917,3.0965,3.1166,3.1244,3.139,3.1458,3.1552,3.164,3.1822,3.1936,3.2004,3.2114,3.2264,3.2391,3.2419,3.247,3.2487,3.2517,3.239,3.2376,3.2362,3.2327,3.2498,3.2498,3.2642,3.2643,3.2644]},{"header":{"parameterUnit":"m.s-1","parameterCategory":1,"la1":30.2991,"la2":30.254,"lo1":-89.0895,"lo2":-89.0444,"dy":0.0017,"dx":0.0017,"nx":28,"ny":28,"refTime":"2024-07-05T09:00:00:Z","depth":0,"parameterNumber":3,"parameterNumberName":"V-component_of_WINDS"},"data":[0,0,0,0,0,0,0,0,0,0,0,0,0,0,0,0,0,0,0,0,0,0,0,0,0,0,0,0,0,0,0,0,0,0,0,0,0,0,0,0,0,0,0,0,0,0,0,0,0,0,0,0,0,0,0,0,0,0,1.3892,1.3894,0,1.4127,1.413,1.4132,1.4167,1.4165,1.4163,1.4161,1.4408,1.4416,1.4425,0,0,0,0,0,0,0,0,0,0,0,0,0,1.3477,1.3484,1.3892,1.3895,1.3898,1.4127,1.413,1.4133,1.4168,1.4165,1.4163,1.416,1.4405,1.4415,1.4425,0,0,0,0,0,0,0,0,0,0,0,0,0,1.3679,1.3487,1.3891,1.3942,1.3949,1.4126,1.413,1.4134,1.4168,1.4165,1.4162,1.4159,1.4402,1.4414,1.4427,1.4571,0,0,1.4466,1.4472,0,0,0,0,0,0,0,0,1.3668,1.3694,1.3932,1.3939,1.3947,1.4114,1.4074,1.4281,1.4169,1.4085,1.4161,1.4157,1.4313,1.4333,1.4384,1.4582,1.4593,1.4467,1.4475,1.448,1.4484,0,0,0,0,0,0,0,1.3653,1.3684,1.3985,1.3935,1.3945,1.3955,1.398,1.4113,1.4215,1.4092,1.4096,1.4123,1.4317,1.4372,1.439,1.4596,1.4467,1.4478,1.4486,1.4491,1.4924,1.4928,0,0,0,0,0,0,1.3629,1.3672,1.3978,1.3992,1.3796,1.3965,1.3993,1.4064,1.4213,1.4233,1.4125,1.4123,1.4352,1.4375,1.4399,1.458,1.448,1.4492,1.45,1.492,1.4925,1.4929,0,0,0,0,0,0,1.362,1.3656,1.3968,1.3833,1.3874,1.3975,1.4055,1.407,1.4126,1.4238,1.4257,1.4163,1.435,1.4381,1.4527,1.4589,1.4498,1.451,1.4916,1.4922,1.4927,1.494,0,0,0,0,0,0,1.3608,1.3653,1.3708,1.3834,1.3881,1.4092,1.4059,1.4077,1.4147,1.4147,1.4278,1.4297,1.435,1.4508,1.454,1.4605,1.452,1.4911,1.4919,1.4925,1.4935,1.4945,1.4954,0,0,0,0,0,1.3593,1.3703,1.3711,1.3747,1.3951,1.4095,1.4122,1.4179,1.4152,1.4209,1.428,1.4293,1.4575,1.4523,1.4559,1.4628,1.4908,1.4917,1.4925,1.493,1.4943,1.4954,0,0,0,0,0,0,1.3585,1.3721,1.3731,1.3884,1.3977,1.41,1.4175,1.4191,1.4295,1.4291,1.4359,1.4388,1.4532,1.4594,1.4533,1.4775,1.4739,1.4756,1.4731,1.4744,1.4754,1.4738,1.4531,0,0,0,0,0,1.36,1.3704,1.3817,1.3942,1.3988,1.4073,1.4137,1.4173,1.4273,1.4313,1.4396,1.4494,1.4605,1.4677,1.4785,1.4941,1.4972,1.5007,1.5016,1.5024,1.5039,1.5128,1.5146,1.4957,1.4957,1.4957,0,0,1.3635,1.3722,1.3784,1.3943,1.4019,1.4127,1.4106,1.4221,1.4302,1.4332,1.4476,1.4538,1.4652,1.4804,1.4875,1.4861,1.5097,1.5035,1.504,1.5052,1.5139,1.5156,1.5172,1.4963,1.4962,1.4961,0,0,1.3754,1.3828,1.3941,1.4017,1.4131,1.4186,1.4213,1.4333,1.4376,1.452,1.4544,1.4641,1.483,1.4911,1.4977,1.5121,1.5137,1.5154,1.5208,1.5294,1.5309,1.5323,1.5378,1.5396,1.5167,1.5167,1.5167,0,1.3784,1.3945,1.3998,1.4111,1.4181,1.4208,1.4324,1.4396,1.4541,1.4589,1.4569,1.4806,1.4885,1.5057,1.5092,1.5142,1.5177,1.5143,1.5302,1.5316,1.533,1.5383,1.5403,1.5169,1.5169,1.5168,1.5168,0,1.3977,1.4088,1.4165,1.4302,1.438,1.4494,1.4565,1.4638,1.4665,1.4722,1.4869,1.4962,1.5091,1.5132,1.5161,1.5309,1.5297,1.5288,1.5254,1.5349,1.54,1.5421,1.5171,1.5171,1.517,1.517,0,0,1.4104,1.4264,1.4293,1.4355,1.4481,1.457,1.4683,1.4806,1.4869,1.4966,1.5066,1.5223,1.5216,1.529,1.5327,1.5401,1.5513,1.5384,1.5388,1.5409,1.5685,1.5695,1.5717,1.5521,1.5525,1.5528,1.5677,0,1.4241,1.4446,1.4495,1.4671,1.4775,1.48,1.49,1.4989,1.5044,1.5141,1.5202,1.5314,1.5294,1.5339,1.5413,1.5484,1.557,1.5473,1.5619,1.5623,1.5595,1.5744,1.5755,1.5891,1.5697,1.57,1.5703,0,1.4431,1.4529,1.4715,1.4826,1.4872,1.4961,1.5078,1.5169,1.527,1.5305,1.5385,1.5414,1.5536,1.549,1.566,1.5592,1.5654,1.5697,1.5703,1.5724,1.5673,1.5773,1.5935,1.5957,1.5734,1.5732,1.5729,0,1.451,1.4689,1.4823,1.4875,1.5007,1.507,1.5128,1.5225,1.5295,1.5396,1.5443,1.5557,1.5621,1.5709,1.5768,1.5729,1.5934,1.5893,1.597,1.5969,1.6018,1.6015,1.6197,1.6047,1.6047,1.6047,1.6046,0,1.4661,1.4775,1.4861,1.4944,1.5072,1.5126,1.5252,1.5311,1.5396,1.5493,1.5519,1.561,1.5679,1.5779,1.5825,1.5961,1.5988,1.6022,1.6034,1.6023,1.6019,1.6069,1.6063,1.6052,1.6051,1.605,1.6049,0,1.4775,1.4836,1.4985,1.5096,1.5126,1.5216,1.5312,1.5395,1.5447,1.5569,1.5601,1.5686,1.5805,1.587,1.6019,1.605,1.6203,1.6207,1.6169,1.6176,1.625,1.6244,1.6475,1.651,1.6332,1.6334,1.6335,0,1.4871,1.4959,1.5077,1.5142,1.5201,1.5306,1.5377,1.5431,1.5505,1.5624,1.5693,1.5812,1.5912,1.61,1.6177,1.6291,1.6302,1.6374,1.632,1.6306,1.6309,1.6305,1.6316,1.6386,1.6388,1.6389,1.639,0,1.5036,1.506,1.5161,1.5271,1.5354,1.5444,1.5533,1.5585,1.5655,1.5736,1.5856,1.5932,1.6083,1.6203,1.6322,1.6384,1.6401,1.6405,1.643,1.6423,1.6399,1.6418,1.6201,1.6402,1.6401,1.64,1.6399,1.6399,1.5147,1.5226,1.5322,1.5432,1.5504,1.5586,1.5669,1.5731,1.5831,1.5958,1.5983,1.6111,1.6208,1.637,1.6434,1.6536,1.6523,1.6558,1.6568,1.6577,1.6582,1.6377,1.6557,1.6557,1.6557,1.6557,1.6557,0,1.5318,1.5379,1.5479,1.5602,1.5688,1.569,1.5788,1.5862,1.5973,1.6061,1.6157,1.6295,1.641,1.6493,1.661,1.6676,1.6687,1.6706,1.6705,1.6719,1.6585,1.6554,1.6695,1.6695,1.6695,1.6695,1.6695,1.6695,1.5417,1.5552,1.5587,1.5758,1.5819,1.5943,1.5999,1.6075,1.6145,1.6298,1.6393,1.6444,1.6531,1.6654,1.676,1.6781,1.6826,1.6845,1.6868,1.6743,1.6728,1.6715,1.6686,1.6853,1.6853,1.6995,1.6996,1.6997]}]]